Wind_Speed
15 13 12 11 10 9 7 5 4 3 3 3 2 2 4 5 7 8 8 7 8 8 9 10 8 7 7 8 8 7 8 8 8 7 7 7 8 8 8 7 7 7 8 8
16 15 14 13 12 11 9 8 7 6 6 6 4 3 3 3 5 6 7 7 7 7 8 8 9 7 8 8 8 7 7 8 8 8 7 8 8 8 8 8 7 8 8 8
17 16 17 16 14 12 11 10 10 9 10 9 8 6 5 4 4 5 7 7 6 7 7 7 7 8 8 8 7 7 7 8 8 8 8 8 9 10 9 10 9 9 9 10
20 19 18 17 15 14 14 13 12 12 12 11 11 10 7 6 6 6 6 7 6 6 5 5 6 7 8 8 7 7 7 8 9 9 9 10 10 10 10 10 10 10 11 11
21 21 20 18 17 16 15 15 15 15 15 14 13 12 10 9 8 7 7 6 6 5 5 5 6 7 7 8 8 8 8 9 10 10 10 11 10 11 11 11 11 12 12 12
22 22 21 20 19 18 17 16 17 16 16 15 15 15 12 11 10 9 8 7 7 7 7 6 7 7 7 8 8 8 9 10 10 11 11 11 11 12 12 13 12 12 13 14
23 23 22 21 21 19 18 18 19 18 18 17 17 18 14 12 12 11 10 9 9 9 8 8 8 8 9 9 9 9 10 11 12 12 12 13 13 13 13 14 14 14 14 15
24 23 23 22 22 21 20 20 20 20 20 19 19 19 16 14 13 13 12 13 12 11 11 10 10 10 10 10 11 11 11 12 13 14 14 14 15 15 15 15 15 16 16 16
24 23 22 23 23 23 23 22 22 23 23 23 22 21 18 16 15 15 15 15 15 14 13 13 13 12 12 12 12 12 12 13 14 15 16 16 16 17 17 17 17 18 18 19
24 24 24 25 25 25 25 24 24 25 25 25 24 22 20 19 18 17 17 18 18 17 17 16 15 15 14 14 14 15 15 15 16 17 18 18 18 18 19 19 19 20 20 20
26 25 25 26 27 27 26 26 26 27 27 27 26 24 21 21 20 19 19 19 19 19 19 18 17 17 17 17 17 18 18 18 19 19 20 21 20 20 20 20 21 21 21 22
27 28 27 27 27 28 27 27 27 27 27 27 27 25 22 22 21 21 21 21 21 20 20 20 20 19 20 20 20 19 20 21 21 22 22 22 23 23 22 22 22 22 23 23
27 28 28 28 28 28 28 27 26 27 27 28 28 26 24 23 23 23 23 23 23 23 22 23 22 22 23 23 22 22 23 23 24 25 25 24 25 24 24 23 23 23 24 25
27 30 30 29 29 28 28 27 27 27 29 29 29 28 26 26 25 25 26 26 25 25 25 25 25 25 25 25 25 25 25 25 25 25 26 26 26 26 25 24 24 25 25 25
28 29 30 30 30 29 29 28 28 29 30 30 29 29 28 28 27 27 27 27 28 28 27 28 27 28 28 28 27 26 26 27 27 27 28 28 27 26 26 25 25 26 26 27
29 30 30 31 31 31 31 30 30 30 30 31 31 31 29 29 29 28 28 29 29 30 30 30 31 30 30 29 28 28 28 29 28 28 28 28 27 28 27 26 27 27 27 28
30 31 31 31 31 32 33 31 31 31 31 31 32 32 31 30 30 30 29 30 31 31 32 32 32 32 31 30 30 30 30 31 30 29 28 29 28 28 28 27 28 28 29 29
30 31 32 32 32 34 32 32 32 32 31 31 31 31 31 31 31 30 30 30 30 31 32 33 34 33 31 30 30 31 32 31 31 30 30 31 30 29 30 29 30 30 31 31
30 30 31 32 33 33 32 31 31 31 31 31 31 31 31 31 31 32 32 31 32 32 32 33 33 32 32 32 32 33 33 33 32 32 32 32 32 32 32 32 33 33 34 34
31 31 32 33 33 33 32 32 31 32 33 31 31 31 31 32 32 32 32 32 33 34 33 33 34 33 33 34 34 33 33 34 33 33 34 34 34 35 35 35 35 35 36 35
31 32 33 33 33 34 33 32 32 33 32 31 32 32 32 32 32 33 34 34 34 34 34 34 34 34 34 34 34 34 34 35 36 35 35 36 36 36 36 36 36 37 37 37
30 31 32 32 32 32 32 32 33 34 33 32 33 33 32 32 33 33 34 35 35 35 34 34 34 34 34 34 35 35 35 36 36 37 37 37 36 37 37 38 38 38 37 38
31 31 32 32 32 32 32 32 32 33 33 33 34 33 32 32 32 33 34 35 35 35 35 35 35 35 35 35 35 36 36 37 38 39 38 37 37 37 37 37 38 38 37 38
31 31 31 32 32 33 33 32 33 33 33 33 33 32 32 32 33 34 34 35 35 35 34 35 35 35 35 35 35 36 36 37 38 38 37 37 38 38 37 37 37 38 38 37
30 31 32 32 32 33 32 32 33 33 33 33 33 33 32 33 33 33 33 33 34 34 34 34 34 34 34 34 34 35 36 37 36 36 36 37 39 39 38 37 37 37 37 36
30 30 31 31 31 32 33 33 33 33 33 33 33 33 33 32 32 32 32 32 33 33 33 32 32 32 32 33 34 34 34 34 34 35 36 36 35 35 35 36 36 35 35 35
Wind_Direction
216 218 219 223 229 230 232 235 246 271 297 316 347 8 14 19 8 5 10 19 26 26 25 25 28 32 34 27 26 26 23 23 22 21 20 17 14 10 6 5 7 5 2 358
216 219 222 226 231 235 235 237 248 258 281 289 283 294 305 338 348 356 0 6 14 22 21 20 19 24 25 21 19 21 20 16 14 13 10 6 5 2 356 355 356 351 347 342
218 219 224 229 235 236 238 240 250 256 269 278 281 287 291 299 321 336 348 354 6 12 16 14 13 12 14 12 9 9 7 3 1 357 352 350 352 350 348 347 344 342 340 335
219 221 227 233 238 239 243 247 249 258 266 270 274 283 281 281 294 309 323 334 340 350 357 355 356 3 2 358 355 353 350 351 349 346 343 340 339 340 340 341 338 338 335 334
222 224 230 235 240 245 248 250 250 257 264 268 272 276 279 280 281 293 301 308 313 322 331 333 337 346 347 344 339 339 342 341 341 340 335 333 330 328 329 332 331 331 330 330
224 227 230 235 240 244 249 250 253 259 267 267 273 279 279 278 280 284 290 295 298 306 313 319 325 329 334 336 335 333 334 334 331 329 326 324 322 321 320 322 321 323 324 325
227 230 232 236 240 243 248 253 257 263 265 266 269 272 277 275 275 276 281 286 290 296 303 309 315 313 316 320 324 322 323 323 322 320 317 316 316 318 316 316 313 313 316 317
230 231 233 236 240 246 249 253 258 265 266 265 266 270 273 272 271 273 278 286 291 291 297 301 303 304 304 307 311 312 313 315 316 316 313 311 311 313 313 312 311 310 310 311
233 233 234 237 240 244 248 251 256 262 265 266 266 268 269 268 266 269 273 280 286 289 294 296 297 296 298 300 301 303 304 306 308 310 310 308 309 310 310 310 308 308 307 307
236 236 235 239 241 243 247 250 255 259 264 267 269 268 269 268 267 269 271 276 282 285 289 293 294 295 297 297 297 297 298 300 303 304 305 304 304 306 307 307 307 306 304 304
237 239 238 240 242 244 246 250 253 257 261 266 270 271 271 267 268 270 273 277 280 282 284 288 289 289 292 293 295 296 295 296 298 299 300 300 298 301 303 303 304 305 303 303
241 243 243 244 245 245 249 251 253 256 260 265 269 272 271 268 269 272 275 277 277 278 279 283 285 285 286 288 290 291 293 293 293 294 294 295 296 297 297 299 300 301 301 302
243 246 246 245 245 246 249 252 254 257 260 264 267 270 272 270 272 274 275 276 275 276 278 280 281 282 283 284 285 287 288 290 292 292 291 292 295 294 293 295 297 297 298 299
247 248 249 249 248 249 251 253 255 257 260 264 267 270 272 272 272 272 272 273 273 276 278 280 278 278 280 281 281 282 284 286 290 292 293 292 292 292 291 293 295 295 296 298
247 249 250 250 249 249 251 252 254 256 259 263 268 270 272 272 272 272 271 272 274 277 280 280 281 281 281 281 282 282 284 285 288 289 291 291 290 290 290 293 295 295 297 298
248 251 252 252 252 253 254 254 255 257 260 263 267 269 272 274 272 273 273 273 274 276 278 280 280 282 281 282 282 283 285 287 288 289 289 290 289 290 292 294 296 296 297 297
252 252 253 254 254 255 256 258 261 262 264 266 268 269 269 271 271 272 273 273 275 275 275 277 278 278 281 283 284 282 284 285 286 286 288 289 290 291 294 294 294 295 296 296
253 254 255 256 257 258 260 262 264 266 268 269 270 270 270 270 271 272 274 275 274 275 278 278 278 280 281 283 284 284 283 282 283 285 286 287 288 290 292 293 293 294 295 295
251 253 255 257 259 262 262 263 266 269 271 271 272 272 272 271 271 272 274 274 274 274 277 279 280 282 283 285 285 286 284 281 281 283 284 286 287 288 290 290 292 293 294 294
251 252 255 258 260 261 264 265 267 269 270 271 270 271 271 271 270 271 273 275 276 276 278 280 280 281 282 284 284 284 285 283 283 283 284 286 288 288 288 289 290 292 293 292
251 253 255 258 261 263 265 267 267 269 271 271 271 271 272 271 270 272 274 276 276 277 280 283 283 282 283 285 286 285 284 284 285 285 285 286 288 288 288 288 289 290 291 291
252 254 256 259 261 264 267 268 268 270 270 271 271 272 272 272 272 273 274 275 277 279 281 283 283 283 283 283 284 284 284 285 285 286 287 288 288 287 287 287 287 288 288 289
254 256 258 259 261 264 266 268 269 269 269 269 270 270 270 271 271 272 273 275 276 277 279 280 280 281 281 281 282 283 283 284 285 285 286 286 287 287 285 285 287 287 289 289
256 257 258 259 261 263 265 266 267 268 268 269 269 270 270 270 271 272 273 274 276 278 279 279 280 280 280 281 282 283 284 285 285 285 286 287 287 287 287 286 286 288 289 289
258 258 259 261 263 265 265 266 267 267 267 267 268 269 269 271 272 274 274 276 277 279 280 281 280 280 281 283 284 284 285 286 286 286 286 287 287 287 285 286 288 288 288 288
259 260 260 262 265 267 267 267 269 270 269 269 270 271 272 273 274 275 276 278 279 280 280 280 280 282 284 284 284 285 287 287 287 288 288 289 288 288 287 287 288 288 289 289
Height
5912 5914 5915 5916 5916 5917 5918 5918 5918 5919 5918 5918 5917 5918 5917 5917 5916 5915 5914 5913 5912 5910 5909 5908 5907 5905 5905 5904 5903 5902 5901 5900 5899 5897 5896 5895 5894 5893 5892 5890 5889 5888 5888 5886
5911 5912 5914 5914 5915 5916 5916 5917 5918 5918 5918 5917 5917 5917 5917 5917 5916 5915 5914 5913 5912 5911 5909 5908 5907 5906 5905 5904 5903 5902 5901 5900 5899 5898 5897 5896 5894 5893 5892 5890 5889 5888 5887 5886
5908 5911 5911 5912 5914 5915 5915 5916 5916 5917 5917 5916 5917 5917 5917 5916 5915 5915 5914 5913 5912 5911 5910 5909 5908 5907 5906 5904 5903 5902 5902 5900 5899 5898 5897 5895 5894 5893 5891 5890 5889 5888 5887 5885
5905 5907 5908 5910 5912 5913 5914 5914 5915 5915 5915 5915 5916 5916 5916 5915 5915 5914 5914 5913 5912 5911 5910 5909 5908 5907 5905 5904 5903 5902 5901 5900 5899 5898 5896 5895 5894 5892 5891 5890 5888 5887 5886 5884
5902 5904 5906 5908 5909 5910 5911 5912 5913 5913 5913 5913 5914 5914 5915 5914 5913 5913 5913 5912 5911 5910 5909 5908 5907 5906 5905 5904 5903 5902 5901 5899 5898 5897 5895 5894 5893 5891 5890 5889 5887 5885 5884 5883
5898 5900 5902 5904 5906 5907 5908 5909 5910 5910 5910 5911 5911 5912 5912 5912 5912 5912 5911 5911 5910 5909 5908 5907 5906 5905 5904 5903 5902 5901 5900 5899 5897 5896 5894 5893 5891 5890 5889 5887 5886 5884 5883 5881
5895 5897 5899 5901 5902 5904 5906 5907 5907 5907 5907 5908 5909 5908 5910 5910 5910 5909 5909 5909 5908 5907 5906 5905 5904 5904 5902 5901 5900 5899 5898 5897 5895 5894 5892 5891 5890 5888 5887 5885 5884 5882 5881 5879
5890 5893 5896 5897 5899 5901 5902 5903 5904 5904 5904 5906 5906 5905 5908 5907 5907 5907 5907 5906 5905 5905 5904 5903 5902 5901 5900 5899 5898 5897 5896 5895 5893 5891 5890 5889 5887 5885 5884 5882 5881 5879 5878 5876
5886 5890 5892 5893 5895 5896 5897 5898 5900 5900 5900 5901 5901 5902 5903 5904 5904 5904 5904 5903 5903 5902 5902 5900 5899 5898 5897 5896 5895 5894 5892 5891 5890 5889 5887 5885 5884 5882 5880 5879 5877 5876 5874 5872
5882 5885 5887 5888 5890 5891 5893 5894 5895 5896 5895 5895 5896 5897 5899 5900 5900 5901 5900 5900 5899 5899 5898 5897 5896 5895 5894 5893 5892 5890 5889 5887 5886 5885 5883 5882 5880 5878 5876 5875 5873 5871 5869 5868
5876 5880 5882 5884 5885 5886 5888 5889 5890 5891 5891 5891 5891 5895 5895 5895 5896 5896 5896 5896 5895 5895 5894 5893 5892 5891 5890 5889 5887 5886 5884 5883 5881 5880 5879 5877 5875 5873 5872 5870 5869 5867 5865 5863
5871 5873 5876 5878 5879 5880 5882 5883 5885 5886 5886 5886 5886 5891 5890 5890 5891 5891 5891 5891 5890 5890 5889 5888 5887 5886 5885 5884 5882 5881 5879 5877 5876 5875 5873 5872 5870 5869 5867 5865 5863 5862 5860 5858
5865 5867 5869 5872 5875 5876 5876 5878 5879 5880 5881 5881 5881 5885 5884 5885 5885 5886 5886 5885 5884 5884 5883 5882 5882 5881 5880 5878 5877 5875 5874 5872 5871 5869 5867 5865 5864 5863 5861 5859 5857 5856 5854 5852
5859 5861 5864 5866 5868 5870 5871 5872 5873 5875 5875 5875 5876 5878 5879 5879 5879 5880 5879 5879 5878 5878 5877 5876 5876 5875 5873 5872 5871 5869 5868 5866 5865 5863 5861 5859 5857 5856 5854 5853 5851 5850 5848 5846
5853 5854 5856 5858 5861 5862 5864 5865 5867 5868 5869 5869 5870 5871 5872 5872 5873 5873 5873 5872 5872 5871 5871 5869 5869 5868 5867 5865 5864 5862 5861 5859 5858 5856 5855 5852 5850 5849 5848 5846 5845 5843 5841 5839
5846 5848 5849 5852 5854 5855 5856 5858 5859 5861 5862 5862 5863 5864 5865 5865 5865 5865 5865 5865 5864 5864 5863 5862 5861 5860 5859 5857 5856 5855 5853 5852 5851 5849 5848 5846 5843 5842 5841 5840 5838 5837 5834 5832
5839 5841 5843 5844 5846 5847 5849 5851 5853 5854 5855 5856 5856 5857 5857 5857 5857 5858 5857 5857 5856 5856 5855 5854 5853 5852 5851 5850 5848 5846 5845 5844 5843 5842 5840 5839 5837 5835 5834 5833 5831 5829 5827 5825
5832 5834 5835 5837 5839 5839 5844 5844 5845 5846 5847 5848 5848 5848 5849 5849 5849 5849 5849 5849 5848 5848 5847 5846 5844 5844 5842 5841 5840 5838 5837 5836 5835 5834 5832 5831 5829 5828 5827 5825 5823 5822 5820 5818
5825 5826 5827 5829 5830 5831 5835 5836 5837 5838 5838 5840 5840 5840 5841 5841 5841 5841 5841 5840 5840 5839 5838 5837 5836 5835 5834 5833 5832 5830 5829 5828 5827 5826 5824 5823 5821 5820 5818 5817 5815 5813 5811 5809
5817 5819 5821 5821 5822 5824 5828 5829 5829 5830 5830 5832 5831 5831 5832 5832 5832 5833 5832 5832 5831 5830 5829 5828 5827 5826 5825 5824 5823 5821 5820 5819 5818 5817 5816 5814 5812 5811 5809 5807 5805 5803 5801 5799
5810 5811 5813 5814 5815 5816 5819 5820 5821 5823 5824 5823 5822 5823 5822 5822 5823 5824 5823 5822 5822 5821 5820 5819 5818 5817 5816 5815 5814 5813 5811 5810 5809 5807 5806 5804 5803 5801 5799 5797 5795 5793 5791 5789
5802 5804 5805 5806 5808 5811 5811 5812 5813 5814 5814 5814 5813 5813 5813 5813 5814 5814 5813 5813 5812 5812 5811 5810 5809 5808 5807 5805 5804 5803 5802 5800 5799 5797 5795 5794 5792 5790 5788 5786 5785 5783 5780 5778
5795 5797 5798 5800 5803 5803 5803 5804 5804 5804 5805 5805 5804 5804 5804 5805 5805 5805 5804 5804 5803 5802 5801 5800 5799 5798 5797 5795 5794 5793 5792 5790 5789 5787 5785 5783 5782 5779 5777 5775 5774 5772 5769 5766
5788 5789 5790 5792 5793 5794 5795 5795 5795 5795 5796 5796 5796 5796 5796 5796 5796 5795 5795 5794 5793 5792 5791 5790 5789 5788 5787 5786 5784 5783 5781 5780 5778 5776 5774 5772 5771 5768 5766 5764 5762 5761 5758 5756
5780 5781 5782 5783 5785 5785 5786 5786 5786 5786 5787 5787 5787 5787 5787 5787 5787 5786 5785 5784 5783 5783 5782 5780 5779 5778 5777 5775 5774 5772 5771 5769 5767 5765 5764 5762 5759 5757 5754 5753 5751 5749 5747 5745
5772 5773 5774 5775 5776 5776 5777 5777 5777 5777 5777 5778 5778 5778 5778 5778 5777 5777 5776 5775 5774 5773 5772 5771 5770 5768 5767 5765 5764 5762 5760 5758 5757 5755 5753 5750 5748 5746 5744 5742 5740 5738 5736 5734